Date,TemperatureHighF,TemperatureAvgF,TemperatureLowF,DewpointHighF,DewpointAvgF,DewpointLowF,HumidityHigh,HumidityAvg,HumidityLow,PressureMaxIn,PressureMinIn,WindSpeedMaxMPH,WindSpeedAvgMPH,GustSpeedMaxMPH,PrecipitationSumIn
2013-1-1,37.1,32.8,21.4,29.0,23.0,10.0,76,67,54,29.97,29.79,14,4,18,0.03
2013-1-2,27.3,22.7,15.1,17.4,14.3,8.8,78,70,60,30.15,29.95,10,2,11,0.00
2013-1-3,25.2,20.4,9.2,17.4,12.0,1.8,77,69,61,30.17,30.03,10,2,11,0.00
2013-1-4,34.7,29.5,23.3,26.2,22.6,16.9,84,75,68,30.04,29.88,14,2,14,0.01
2013-1-5,39.5,33.6,27.4,26.0,23.4,20.0,79,66,56,30.25,29.93,17,2,18,0.00
2013-1-6,41.2,34.8,29.4,31.9,28.7,21.8,91,78,68,30.21,29.94,7,1,8,0.00
2013-1-7,38.4,34.6,30.7,30.5,24.8,19.0,87,68,52,30.39,30.00,13,2,13,0.00
2013-1-8,44.3,37.1,29.3,33.3,30.3,24.0,89,77,62,30.40,30.30,10,1,10,0.00
2013-1-9,42.0,38.9,33.1,38.0,33.3,28.0,89,80,65,30.37,30.09,9,1,10,0.00
2013-1-10,43.2,39.1,32.9,34.9,26.1,24.0,77,60,49,30.53,30.13,19,4,21,0.00
2013-1-11,42.0,35.7,31.2,42.0,31.8,25.0,98,86,73,30.52,30.13,11,2,9,0.30
2013-1-12,43.6,41.4,37.3,43.3,41.1,37.0,100,99,98,30.17,30.08,11,1,11,0.05
2013-1-13,45.6,42.7,40.0,45.5,42.5,39.7,100,99,99,30.15,30.00,9,0,9,0.01
2013-1-14,53.1,45.5,34.3,52.4,42.1,28.2,100,89,65,30.26,29.90,14,3,16,0.03
2013-1-15,36.7,33.9,31.6,30.8,29.1,26.7,92,83,72,30.32,30.19,9,1,8,0.07
2013-1-16,33.5,31.6,29.4,32.2,30.6,26.7,98,96,76,30.23,29.77,9,1,8,0.01
2013-1-17,40.4,34.2,28.1,32.4,29.2,17.0,98,82,62,30.09,29.86,15,2,15,0.33
2013-1-18,28.1,23.0,19.7,17.5,10.2,3.8,76,58,42,30.47,30.01,12,3,17,0.00
2013-1-19,42.5,35.3,22.6,35.0,27.0,14.1,84,72,61,30.40,29.89,13,1,13,0.07
2013-1-20,48.0,39.0,27.4,33.8,25.2,13.7,85,59,38,29.97,29.63,23,4,23,0.00
2013-1-21,27.6,25.0,20.8,23.3,15.8,8.3,93,69,51,30.08,29.79,13,1,13,0.00
2013-1-22,23.0,16.7,10.5,21.0,3.5,-3.0,92,57,44,30.13,29.78,21,5,21,0.00
2013-1-23,16.2,11.3,6.6,1.4,-1.4,-4.0,72,56,46,30.19,30.11,12,3,15,0.00
2013-1-24,19.2,12.0,4.1,2.8,-0.8,-4.0,74,56,40,30.33,30.12,25,5,25,0.00
2013-1-25,21.2,16.0,8.7,16.0,6.1,0.0,92,66,44,30.38,30.06,11,2,11,0.00
2013-1-26,22.4,18.0,12.1,15.0,8.4,3.0,92,67,50,30.32,30.02,17,4,17,0.00
2013-1-27,30.6,23.2,11.9,11.5,5.0,1.0,82,48,29,30.50,30.32,14,2,15,0.00
2013-1-28,32.4,28.8,21.8,31.6,23.0,0.0,98,82,35,30.48,29.99,11,1,10,0.01
2013-1-29,35.6,32.7,28.2,35.1,32.0,27.6,100,97,94,30.17,29.98,7,1,8,0.13
2013-1-30,54.9,48.9,35.4,54.9,48.7,34.9,100,99,98,30.12,29.42,22,3,22,0.04
2013-1-31,57.2,43.1,27.4,57.2,34.7,13.9,100,74,46,29.67,29.02,29,6,41,0.82
2013-2-1,29.9,25.4,21.0,16.9,12.2,7.0,71,57,43,30.16,29.68,18,4,18,0.00
2013-2-2,29.1,23.7,16.3,19.7,12.5,9.0,91,63,46,30.27,30.07,8,2,12,0.00
2013-2-3,29.0,23.9,18.3,20.5,17.7,15.9,93,78,63,30.06,29.76,8,2,8,0.01
2013-2-4,29.7,24.7,20.9,20.0,11.8,7.7,91,59,44,29.96,29.77,14,4,16,0.00
2013-2-5,26.2,24.3,22.2,23.8,20.8,10.0,94,86,58,30.00,29.91,7,1,8,0.00
2013-2-6,36.9,30.6,24.7,28.5,21.0,3.0,96,70,39,30.33,29.91,15,3,17,0.03
2013-2-7,29.5,25.4,19.3,18.3,9.8,2.0,72,52,39,30.50,30.33,10,2,13,0.00
2013-2-8,30.8,27.2,21.7,30.1,25.1,17.0,97,92,68,30.39,29.52,40,9,40,0.00
2013-2-9,23.6,21.2,15.3,22.6,20.0,14.0,100,95,93,30.26,29.64,31,8,31,0.01
2013-2-10,33.1,22.7,12.5,32.6,21.8,11.0,99,96,92,30.45,30.26,16,2,16,0.14
2013-2-11,42.4,36.9,24.7,42.1,36.5,24.0,99,98,96,30.35,29.65,15,2,15,0.27
2013-2-12,42.7,37.3,33.3,39.5,31.2,25.9,99,80,61,29.92,29.67,17,4,20,0.00
2013-2-13,39.4,34.4,28.9,29.6,25.5,22.5,88,70,58,29.91,29.69,11,1,12,0.00
2013-2-14,40.8,33.3,28.7,31.3,27.8,24.0,100,81,54,29.99,29.70,10,2,10,0.00
2013-2-15,45.9,37.9,30.4,37.0,34.2,29.9,98,87,68,30.00,29.91,9,1,11,0.01
2013-2-16,37.6,32.6,26.7,35.0,25.6,20.0,96,76,55,29.94,29.69,14,4,14,0.03
2013-2-17,27.8,22.5,15.0,24.0,8.9,3.0,91,57,37,29.84,29.54,25,8,28,0.00
2013-2-18,31.0,22.9,13.8,13.9,8.4,4.0,65,54,39,30.20,29.85,20,5,21,0.00
2013-2-19,43.5,36.1,26.1,39.7,31.7,13.0,98,85,56,30.20,29.62,7,2,15,0.32
2013-2-20,36.0,29.0,22.1,36.0,18.1,11.0,98,64,55,29.89,29.62,19,6,19,0.00
2013-2-21,31.7,24.4,20.7,19.0,15.0,13.0,76,68,56,30.26,29.88,14,6,21,0.00
2013-2-22,36.7,30.1,20.6,29.0,23.5,15.0,86,77,61,30.39,30.25,9,2,16,0.00
2013-2-23,36.0,33.9,32.4,36.0,32.9,28.0,98,96,85,30.29,29.82,13,5,16,0.30
2013-2-24,39.9,35.1,31.7,37.0,32.5,27.5,98,90,78,29.91,29.70,15,4,17,0.01
2013-2-25,43.4,36.3,29.9,30.7,28.4,25.0,84,73,56,30.24,29.91,13,2,13,0.00
2013-2-26,40.7,35.7,31.5,33.0,30.0,28.0,95,80,63,30.30,29.99,16,3,16,0.11
2013-2-27,41.7,39.0,32.7,41.4,38.6,31.4,99,98,95,29.99,29.52,24,6,25,1.62
2013-2-28,46.2,39.1,34.0,40.1,37.2,34.0,99,93,75,29.61,29.52,7,1,7,0.03
2013-3-1,42.8,37.8,33.9,35.4,31.7,29.0,93,79,59,29.73,29.55,14,4,14,0.00
2013-3-2,37.1,33.0,30.2,29.2,27.0,25.8,86,79,68,29.73,29.65,12,3,14,0.00
2013-3-3,33.3,29.4,26.5,26.0,23.5,21.0,85,78,65,29.68,29.61,16,5,17,0.00
2013-3-4,38.7,30.8,26.2,26.0,22.7,20.0,80,72,59,29.82,29.68,21,6,22,0.00
2013-3-5,44.7,37.7,28.5,30.3,27.6,23.0,81,68,51,30.02,29.83,18,3,19,0.00
2013-3-6,40.2,36.9,33.9,36.0,32.6,29.6,92,84,74,30.00,29.89,31,8,31,0.00
2013-3-7,35.5,32.8,30.9,32.2,30.4,28.0,97,91,80,30.03,29.89,27,8,27,0.00
2013-3-8,40.7,34.0,30.0,34.0,30.0,26.5,97,86,59,30.14,29.94,18,4,23,0.28
2013-3-9,53.4,40.9,30.8,31.0,24.9,13.1,84,57,21,30.32,30.14,15,3,17,0.13
2013-3-10,42.2,36.6,31.1,35.6,31.7,26.9,94,83,68,30.38,30.30,8,2,10,0.00
2013-3-11,49.1,42.2,34.3,45.0,40.0,33.0,98,92,80,30.32,30.11,13,3,13,0.00
2013-3-12,51.9,47.9,39.8,51.5,47.4,39.0,99,98,92,30.11,29.68,20,4,22,2.06
2013-3-13,48.1,41.1,34.4,38.0,29.1,23.0,94,64,42,29.83,29.75,16,4,16,0.00
2013-3-14,35.0,30.4,27.9,29.0,16.8,11.0,83,57,44,29.89,29.78,20,6,21,0.00
2013-3-15,41.6,33.5,24.3,31.1,20.9,11.0,81,60,39,29.92,29.70,18,4,18,0.00
2013-3-16,38.6,32.4,28.8,30.3,25.0,17.8,93,76,45,29.88,29.73,11,2,10,0.01
2013-3-17,35.9,30.6,24.6,28.4,15.0,9.0,91,54,35,30.30,29.88,18,4,18,0.00
2013-3-18,33.2,28.1,22.1,28.0,14.9,5.8,96,60,35,30.42,30.09,16,4,19,0.00
2013-3-19,35.9,33.2,28.9,35.4,32.5,28.0,98,97,96,30.08,29.64,15,4,17,0.45
2013-3-20,39.7,34.5,27.2,32.4,22.6,19.0,97,63,45,29.83,29.74,15,3,15,0.06
2013-3-21,36.4,31.3,28.0,27.1,22.8,13.0,90,72,50,29.82,29.61,12,2,12,0.01
2013-3-22,38.7,32.4,23.8,24.6,21.0,14.0,74,63,51,29.82,29.67,16,4,17,0.00
2013-3-23,44.1,35.7,30.3,27.4,22.3,17.0,75,59,36,29.87,29.72,17,6,20,0.00
2013-3-24,44.2,37.5,26.9,29.5,24.2,19.0,76,59,48,29.90,29.71,14,2,14,0.00
2013-3-25,42.7,38.0,32.3,31.0,28.5,25.8,86,69,58,29.74,29.43,21,5,22,0.00
2013-3-26,48.1,40.4,35.2,32.9,27.2,22.0,79,61,41,29.82,29.55,14,3,16,0.00
2013-3-27,51.4,42.9,32.3,29.5,25.5,21.0,69,51,32,29.91,29.80,21,4,21,0.00
2013-3-28,48.2,42.1,36.4,38.0,32.7,27.1,85,70,56,30.06,29.89,9,4,14,0.00
2013-3-29,57.6,47.1,37.7,34.0,30.4,27.0,74,54,34,30.09,30.00,16,4,16,0.00
2013-3-30,56.7,46.7,35.3,34.4,25.8,20.0,80,47,27,30.11,30.03,12,3,16,0.00
2013-3-31,54.6,46.9,40.6,42.0,32.3,20.0,96,59,37,30.11,29.64,23,3,23,0.22
2013-4-1,59.8,45.6,34.7,48.4,37.3,16.0,98,75,43,29.83,29.56,16,3,20,0.07
2013-4-2,41.4,35.4,28.2,20.0,14.5,10.5,68,43,30,30.02,29.84,18,6,20,0.00
2013-4-3,44.9,36.7,28.1,18.4,15.1,11.0,62,42,29,30.24,30.01,20,6,20,0.00
2013-4-4,50.7,36.3,27.3,33.0,23.1,15.0,85,61,34,30.35,30.09,10,2,15,0.00
2013-4-5,61.1,47.3,36.5,33.0,26.0,18.3,85,48,21,30.07,29.67,18,4,18,0.00
2013-4-6,48.2,39.1,31.3,26.9,15.2,6.3,69,41,19,30.31,29.92,21,4,21,0.00
2013-4-7,52.9,46.0,33.6,43.0,37.2,26.5,94,72,53,30.31,30.01,26,3,26,0.02
2013-4-8,68.7,55.2,42.4,45.0,42.6,37.4,97,66,33,30.06,29.97,11,2,12,0.01
2013-4-9,77.7,64.9,46.9,55.4,46.4,41.4,98,56,32,30.02,29.87,16,2,16,0.01
2013-4-10,67.9,55.3,48.5,55.0,49.8,41.0,97,83,56,29.93,29.81,11,2,18,0.30
2013-4-11,58.3,50.4,44.1,52.0,45.4,37.0,98,84,64,30.06,29.77,11,3,11,0.01
2013-4-12,44.1,39.3,36.7,38.8,35.8,27.8,98,88,56,30.07,29.72,23,7,25,0.47
2013-4-13,53.9,45.7,35.5,41.1,37.5,34.0,98,74,51,29.94,29.73,14,2,16,0.04
2013-4-14,54.1,47.4,41.2,39.0,31.7,26.0,84,56,39,30.20,29.93,15,3,16,0.00
2013-4-15,53.7,46.3,37.9,36.8,32.1,25.0,76,58,42,30.38,30.20,15,2,15,0.00
2013-4-16,60.7,51.1,40.0,52.0,47.0,35.0,96,86,68,30.38,30.11,17,3,17,0.01
2013-4-17,65.8,57.7,49.1,53.0,38.1,31.0,95,51,29,30.29,30.10,16,3,18,0.00
2013-4-18,56.9,50.0,42.9,47.4,41.4,33.7,92,74,44,30.36,30.12,17,4,21,0.00
2013-4-19,64.9,58.0,49.5,62.0,57.0,47.0,99,97,89,30.12,29.65,19,3,22,0.01
2013-4-20,59.2,51.3,41.3,59.0,37.2,25.9,99,63,35,30.26,29.63,19,4,19,0.28
2013-4-21,52.5,41.6,32.7,33.5,24.9,18.8,77,53,31,30.63,30.25,16,3,16,0.00
2013-4-22,52.9,44.6,35.8,38.1,33.3,25.5,85,66,40,30.68,30.51,18,4,21,0.00
2013-4-23,45.3,40.9,36.4,41.0,36.9,31.0,92,86,74,30.51,30.07,20,6,21,0.00
2013-4-24,68.1,52.7,41.2,51.0,45.6,39.0,97,79,48,30.07,29.85,14,3,17,0.00
2013-4-25,62.2,54.7,45.7,50.0,32.5,23.5,98,47,25,30.26,29.85,19,2,19,0.02
2013-4-26,63.8,55.7,43.7,38.6,32.6,25.0,60,42,31,30.39,30.25,12,2,12,0.00
2013-4-27,64.2,52.6,42.1,41.9,35.9,29.0,72,54,33,30.40,30.28,12,2,13,0.00
2013-4-28,64.7,53.7,43.5,46.1,39.5,31.0,95,62,34,30.31,30.22,15,2,15,0.00
2013-4-29,57.1,52.2,48.2,48.3,43.9,38.0,92,74,50,30.25,30.21,14,2,14,0.00
2013-4-30,63.6,55.3,46.6,44.0,35.3,24.8,84,50,26,30.34,30.22,14,2,14,0.00
2013-5-1,65.3,56.8,45.4,46.3,37.7,26.0,60,49,37,30.45,30.33,12,3,14,0.00
2013-5-2,71.8,63.1,55.2,47.1,44.4,39.8,70,52,33,30.40,30.30,10,2,11,0.00
2013-5-3,64.3,54.7,46.7,46.0,41.8,34.0,92,64,41,30.45,30.34,12,3,15,0.00
2013-5-4,66.0,52.9,43.1,47.0,43.8,40.0,94,73,43,30.36,30.25,11,-9,16,0.00
2013-5-5,58.7,50.6,38.2,45.5,42.3,36.0,95,74,54,30.29,30.23,13,3,17,0.02
2013-5-6,66.7,53.9,42.8,52.0,47.0,41.7,96,79,58,30.27,30.15,14,1,17,0.00
2013-5-7,70.0,61.3,50.6,60.1,53.8,46.0,93,77,57,30.17,30.10,11,2,14,0.00
2013-5-8,64.9,59.2,55.0,63.0,58.3,55.0,99,97,90,30.13,30.00,14,2,17,0.51
2013-5-9,62.2,57.1,53.2,60.3,56.4,53.0,99,97,91,30.02,29.86,9,0,9,0.25
2013-5-10,76.1,64.7,53.6,62.8,57.2,53.0,99,79,50,29.98,29.89,9,1,10,0.01
2013-5-11,63.0,59.9,56.7,62.0,59.0,55.0,99,97,86,29.89,29.68,14,1,14,0.31
2013-5-12,68.4,57.9,49.8,59.0,46.3,28.0,99,70,30,29.85,29.61,12,2,14,0.05
2013-5-13,56.8,48.9,40.7,37.0,33.0,27.0,77,55,37,30.07,29.86,10,2,14,0.00
2013-5-14,60.1,49.8,37.3,40.0,32.1,27.0,80,53,34,30.08,30.01,8,1,9,0.00
2013-5-15,60.9,53.9,44.6,54.0,48.6,40.0,95,82,59,30.07,29.69,14,2,16,0.04
2013-5-16,80.4,65.2,53.0,56.7,52.0,42.0,96,67,29,29.80,29.68,6,1,13,0.00
2013-5-17,69.7,61.3,53.3,48.0,42.3,36.6,68,51,38,30.19,29.80,11,2,14,0.00
2013-5-18,67.8,58.1,50.6,52.2,47.9,37.0,93,70,44,30.30,30.19,9,1,13,0.00
2013-5-19,55.3,54.3,51.9,55.0,53.3,50.0,99,96,91,30.34,30.18,10,1,11,0.09
2013-5-20,78.3,66.0,55.0,69.9,62.5,55.0,99,89,70,30.17,29.94,5,0,7,0.02
2013-5-21,85.2,74.1,63.5,74.0,68.2,63.0,98,83,63,29.96,29.81,11,1,11,0.00
2013-5-22,73.4,62.8,54.2,68.0,61.1,53.0,99,94,82,29.91,29.84,8,1,16,0.01
2013-5-23,71.5,65.1,62.4,69.4,64.4,62.0,99,98,90,29.89,29.76,11,2,12,0.00
2013-5-24,66.7,55.7,44.5,66.0,54.6,43.7,99,96,83,29.85,29.64,15,2,16,0.01
2013-5-25,47.3,44.2,42.9,46.3,43.1,40.6,98,96,90,29.89,29.79,16,4,18,0.00
2013-5-26,60.5,51.3,42.9,44.9,41.7,39.5,91,71,50,30.15,29.85,21,3,21,0.00
2013-5-27,71.4,59.1,44.6,49.0,43.5,38.0,84,58,36,30.20,30.09,9,1,10,0.00
2013-5-28,68.8,59.6,54.9,57.0,49.0,34.0,99,71,43,30.21,30.13,8,1,9,0.01
2013-5-29,75.5,64.6,55.8,69.0,62.3,56.0,99,93,78,30.13,29.99,6,0,10,0.00
2013-5-30,88.4,78.4,64.9,73.0,67.8,63.0,94,71,53,30.09,30.02,7,0,7,0.01
2013-5-31,90.0,77.5,69.4,72.9,67.2,63.8,87,72,48,30.08,29.96,10,0,10,0.00
2013-6-1,86.0,75.9,67.5,74.3,68.0,64.0,90,77,60,29.99,29.88,8,0,14,0.00
2013-6-2,82.4,71.4,63.8,73.0,66.4,63.0,97,85,68,29.89,29.75,10,1,15,0.00
2013-6-3,74.7,67.6,60.4,69.0,65.2,53.0,99,92,77,29.85,29.77,9,0,9,0.00
2013-6-4,71.6,61.9,52.5,53.2,46.8,42.0,79,59,41,30.08,29.85,15,3,21,0.00
2013-6-5,71.3,63.3,52.5,54.0,48.6,44.0,79,59,47,30.19,30.08,12,1,12,0.00
2013-6-6,68.8,60.9,55.2,59.0,55.7,51.0,97,84,62,30.15,30.03,11,2,12,0.00
2013-6-7,59.3,57.3,54.3,59.0,56.9,53.7,99,99,97,30.03,29.67,17,4,19,1.82
2013-6-8,75.4,64.1,52.0,66.5,59.8,52.0,99,86,71,30.02,29.57,19,2,20,0.11
2013-6-9,78.0,68.0,57.5,63.0,59.9,56.0,95,77,52,30.15,30.03,4,0,8,0.00
2013-6-10,72.3,63.6,58.4,65.0,60.6,57.8,99,90,78,30.15,29.88,17,2,17,0.81
2013-6-11,77.8,66.7,58.7,70.0,64.0,59.0,99,92,73,29.87,29.55,11,1,17,0.48
2013-6-12,72.0,65.5,59.2,59.0,55.5,53.0,89,71,55,29.83,29.62,22,3,22,0.00
2013-6-13,62.9,56.7,51.6,57.3,54.4,51.0,98,92,70,29.82,29.52,21,3,21,1.47
2013-6-14,71.2,58.4,50.4,61.0,54.4,50.0,98,88,56,29.83,29.52,19,3,22,0.47
2013-6-15,77.0,66.9,56.3,60.1,55.4,50.0,96,69,42,29.96,29.83,11,1,11,0.01
2013-6-16,75.9,68.6,60.1,67.1,60.0,51.0,87,75,54,29.95,29.73,7,0,9,0.00
2013-6-17,82.8,70.6,63.1,68.9,63.4,58.1,95,79,52,29.90,29.80,21,0,21,0.35
2013-6-18,79.3,69.3,59.4,70.7,64.5,58.8,98,85,73,29.89,29.80,11,1,14,0.55
2013-6-19,73.4,64.8,54.2,58.8,52.9,44.0,98,68,38,30.14,29.87,14,2,14,0.00
2013-6-20,76.3,68.0,56.8,63.3,55.3,43.0,84,65,52,30.24,30.14,10,0,10,0.00
2013-6-21,80.3,70.0,57.1,67.0,60.1,54.0,91,72,55,30.26,30.20,7,0,7,0.00
2013-6-22,80.4,70.1,59.9,65.0,60.0,55.0,88,71,53,30.24,30.12,11,0,13,0.00
2013-6-23,85.8,72.9,62.5,72.0,66.8,58.0,95,82,59,30.17,30.04,9,0,12,0.00
2013-6-24,89.0,79.1,66.9,75.4,70.6,62.4,98,77,56,30.05,29.90,13,1,13,0.15
2013-6-25,87.4,77.6,66.1,78.1,71.2,65.0,97,81,63,29.97,29.75,8,0,8,0.03
2013-6-26,80.0,74.9,71.3,73.0,70.3,68.0,93,86,77,29.81,29.72,3,0,5,0.01
2013-6-27,78.7,71.3,68.0,74.0,69.4,67.0,99,94,82,29.80,29.59,16,1,16,0.79
2013-6-28,80.0,74.5,69.0,75.0,71.3,68.1,99,90,78,29.60,29.46,11,1,14,0.06
2013-6-29,80.8,73.2,66.9,72.0,69.6,66.0,98,89,67,29.69,29.47,14,1,14,0.00
2013-6-30,78.8,71.7,69.0,74.0,70.7,69.0,99,96,85,29.91,29.69,11,1,12,0.01
2013-7-1,75.2,72.1,70.4,74.1,71.5,70.0,99,98,95,30.05,29.90,13,1,14,0.11
2013-7-2,80.2,74.3,70.9,75.2,72.3,70.7,99,94,84,30.16,30.05,9,1,10,0.03
2013-7-3,83.4,75.1,69.2,76.4,72.3,68.6,99,91,76,30.22,30.14,9,0,9,0.01
2013-7-4,87.0,78.2,71.6,78.0,74.1,70.7,99,88,70,30.22,30.12,8,0,10,0.00
2013-7-5,88.8,80.0,71.3,79.8,74.2,70.0,97,83,65,30.18,30.06,11,0,11,0.00
2013-7-6,88.6,81.6,73.0,77.8,74.4,71.0,95,79,60,30.09,29.98,7,0,7,0.00
2013-7-7,90.3,82.8,74.9,79.6,75.1,71.6,92,79,55,30.02,29.88,7,0,10,0.00
2013-7-8,86.9,80.0,69.9,75.8,71.4,67.0,92,76,58,30.00,29.91,10,0,11,0.00
2013-7-9,83.8,74.6,68.7,75.0,70.8,67.0,98,88,68,30.05,29.98,8,0,8,0.22
2013-7-10,82.5,76.0,71.5,77.0,73.9,71.0,99,93,83,30.00,29.78,7,1,10,0.11
2013-7-11,80.8,74.4,71.2,76.0,70.7,63.9,99,89,71,29.90,29.77,4,0,7,0.50
2013-7-12,77.0,69.5,63.0,69.0,64.0,61.0,95,83,73,30.13,29.90,17,2,17,0.05
2013-7-13,74.5,68.4,63.0,73.0,67.1,61.0,99,96,90,30.29,30.12,12,1,12,0.06
2013-7-14,87.2,79.5,72.1,78.0,74.7,72.0,99,86,67,30.31,30.20,6,0,6,0.35
2013-7-15,88.9,80.6,73.1,80.0,73.0,70.0,96,79,59,30.21,30.10,9,1,9,0.00
2013-7-16,89.2,81.7,73.2,75.8,70.3,67.0,82,69,54,30.16,30.09,7,1,9,0.00
2013-7-17,89.7,82.8,74.9,78.0,72.5,67.0,87,72,58,30.17,30.03,5,0,7,0.01
2013-7-18,91.1,84.2,75.1,79.0,74.9,70.0,86,74,59,30.03,29.93,7,0,8,0.00
2013-7-19,91.6,84.8,76.3,81.0,77.1,74.0,92,78,63,29.93,29.74,10,0,8,0.00
2013-7-20,89.6,80.0,74.0,78.4,74.9,68.0,92,85,65,29.81,29.66,11,0,16,0.11
2013-7-21,82.0,74.1,66.3,70.5,66.0,62.0,91,77,58,29.95,29.81,7,1,9,0.19
2013-7-22,78.8,72.8,68.2,75.0,70.7,67.0,98,93,83,29.95,29.81,9,1,7,0.22
2013-7-23,84.5,75.6,71.4,77.3,72.9,69.9,99,92,71,29.81,29.53,9,1,8,1.25
2013-7-24,79.7,73.5,64.0,74.0,67.9,56.4,99,83,68,29.90,29.58,10,1,9,0.00
2013-7-25,63.8,59.5,56.8,58.4,54.5,49.0,96,84,74,30.06,29.90,18,3,18,0.07
2013-7-26,72.1,64.9,59.0,70.0,63.0,57.9,98,93,84,30.03,29.97,10,1,17,0.29
2013-7-27,80.0,72.2,63.5,69.0,65.5,62.1,99,81,57,30.05,29.96,9,1,9,0.02
2013-7-28,77.3,70.5,63.7,69.1,67.1,63.0,99,89,69,29.99,29.92,6,1,9,0.00
2013-7-29,83.1,74.1,67.2,72.9,68.5,58.0,99,84,58,30.05,29.94,9,0,9,0.02
2013-7-30,77.0,69.2,60.3,64.0,60.0,55.0,86,73,60,30.12,30.05,4,1,9,0.00
2013-7-31,78.3,69.7,60.3,66.0,61.8,58.0,93,77,55,30.13,30.03,4,0,6,0.00
2013-8-1,74.3,67.0,63.7,68.0,64.7,62.0,99,92,79,30.03,29.83,7,1,11,0.37
2013-8-2,78.8,71.3,64.4,68.0,65.5,60.0,99,83,55,29.88,29.76,7,1,9,0.12
2013-8-3,74.1,67.5,62.8,69.0,64.5,60.0,98,90,80,29.88,29.81,5,0,7,0.09
2013-8-4,75.8,66.9,59.3,64.0,58.9,53.5,96,76,57,29.92,29.81,10,2,12,0.00
2013-8-5,72.9,64.3,56.8,56.0,52.5,48.0,89,67,45,30.03,29.91,10,2,11,0.00
2013-8-6,76.0,66.3,56.9,62.0,55.9,49.0,84,70,48,30.12,30.03,7,1,13,0.00
2013-8-7,74.5,68.2,61.4,66.0,62.6,57.8,92,83,61,30.15,30.07,13,2,13,0.02
2013-8-8,77.5,71.0,67.1,73.0,69.6,66.0,99,95,87,30.09,30.00,6,1,10,0.06
2013-8-9,77.6,72.6,70.7,77.0,71.7,69.4,100,97,94,30.07,29.77,8,2,17,1.47
2013-8-10,79.0,71.3,64.0,70.6,65.4,56.6,100,83,61,30.03,29.81,6,1,5,0.01
2013-8-11,76.6,68.8,56.4,62.6,57.8,51.6,86,69,51,30.16,30.01,8,1,7,0.00
2013-8-12,78.0,70.2,63.5,66.8,62.4,57.8,96,78,53,30.03,29.92,7,0,7,0.00
2013-8-13,72.0,68.1,64.9,69.5,66.6,63.5,99,95,81,29.92,29.68,8,0,8,0.12
2013-8-14,71.5,63.3,56.7,63.7,56.2,52.3,96,79,57,30.08,29.70,11,2,13,0.00
2013-8-15,74.0,63.4,55.0,60.0,54.2,50.5,92,74,45,30.18,30.00,6,0,7,0.00
2013-8-16,77.5,67.1,58.0,61.8,56.4,51.9,87,69,49,30.20,30.11,8,0,8,0.00
2013-8-17,78.0,68.5,60.0,64.6,58.7,54.8,85,72,48,30.27,30.19,8,0,8,0.00
2013-8-18,75.5,67.8,62.8,64.3,60.3,57.1,93,77,60,30.26,30.11,6,0,5,0.00
2013-8-19,76.5,67.4,59.8,68.3,63.1,57.8,96,87,68,30.11,30.00,8,0,6,0.02
2013-8-20,81.0,72.2,63.4,69.2,64.1,61.4,96,77,56,30.11,30.01,9,1,9,0.00
2013-8-21,83.5,74.4,66.5,71.4,65.8,62.4,92,76,54,30.15,30.03,5,0,5,0.00
2013-8-22,75.8,71.1,68.0,73.9,69.4,65.6,99,94,90,30.05,29.85,7,0,7,0.35
2013-8-23,77.8,70.9,65.2,69.1,62.5,55.8,99,76,50,30.09,29.83,14,1,14,0.01
2013-8-24,74.6,66.3,58.2,59.1,54.9,51.0,87,67,49,30.33,30.10,10,2,15,0.00
2013-8-25,78.5,67.6,56.9,63.0,57.9,52.0,92,73,41,30.37,30.20,4,0,7,0.00
2013-8-26,73.9,67.5,63.0,68.0,63.4,58.0,98,87,78,30.21,29.90,0,0,3,0.15
2013-8-27,80.8,73.3,67.3,74.0,69.5,67.0,99,88,72,29.89,29.79,7,1,12,0.55
2013-8-28,82.9,74.1,67.8,74.0,69.6,66.0,98,86,68,29.89,29.82,4,0,10,0.00
2013-8-29,74.9,67.9,63.8,69.0,65.5,61.9,99,92,78,30.03,29.89,6,0,9,0.04
2013-8-30,79.5,69.4,63.1,70.8,66.2,61.5,98,90,72,30.02,29.84,5,0,5,0.00
2013-8-31,80.8,73.8,68.9,74.0,71.5,68.0,99,93,80,29.85,29.78,8,0,8,0.00
2013-9-1,78.8,73.3,70.9,75.0,72.0,70.0,99,96,85,29.85,29.79,9,1,9,0.95
2013-9-2,76.0,72.5,69.6,74.0,71.9,68.7,99,98,94,29.82,29.67,7,0,6,0.12
2013-9-3,73.8,68.1,61.6,72.0,65.8,59.6,99,92,80,29.85,29.69,3,0,8,0.02
2013-9-4,76.3,66.0,57.1,63.2,59.8,56.0,97,82,55,29.95,29.84,8,0,8,0.00
2013-9-5,71.6,64.3,56.5,62.6,54.6,44.8,92,72,48,30.12,29.88,11,1,11,0.00
2013-9-6,67.8,58.3,49.8,52.3,46.3,42.8,79,65,46,30.24,30.11,13,1,13,0.00
2013-9-7,75.0,64.8,50.9,59.0,53.5,45.0,88,68,43,30.11,29.88,5,0,5,0.00
2013-9-8,76.1,65.7,55.1,65.0,56.5,45.0,92,73,44,30.07,29.79,7,1,15,0.00
2013-9-9,67.0,57.9,48.8,56.0,48.8,43.0,90,73,53,30.23,30.08,4,0,8,0.01
2013-9-10,76.4,69.5,59.2,72.7,67.9,56.0,99,95,87,30.17,30.03,9,0,9,0.28
2013-9-11,89.5,77.3,70.0,81.0,73.1,70.0,99,87,68,30.09,29.96,6,0,11,0.00
2013-9-12,83.2,73.4,68.1,76.0,70.8,67.5,98,92,74,29.96,29.67,8,0,10,1.07
2013-9-13,76.3,66.6,55.7,70.5,62.5,52.0,99,87,69,29.78,29.60,2,0,3,0.06
2013-9-14,69.3,57.5,49.0,58.0,52.0,47.0,95,82,62,30.09,29.78,0,0,0,0.00
2013-9-15,69.0,59.3,45.6,56.0,51.3,44.0,96,76,52,30.20,30.07,0,0,0,0.00
2013-9-16,68.6,58.3,50.0,61.0,54.4,41.0,97,88,63,30.22,30.03,0,0,0,0.00
2013-9-17,61.3,51.4,42.0,45.0,40.9,37.0,84,68,48,30.42,30.23,0,0,0,0.00
2013-9-18,71.0,56.7,45.2,54.0,48.5,41.0,94,76,48,30.34,30.17,0,0,0,0.00
2013-9-19,77.5,60.5,49.1,62.0,53.5,48.0,98,80,47,30.17,30.06,0,0,0,0.00
2013-9-20,77.3,62.6,54.0,63.0,56.8,52.9,97,83,49,30.08,30.00,0,0,0,0.00
2013-9-21,73.2,65.5,56.9,67.0,63.3,56.0,98,93,80,30.01,29.67,0,0,0,0.00
2013-9-22,71.0,60.5,49.4,67.1,55.9,44.0,99,85,59,29.87,29.62,0,0,0,0.00
2013-9-23,64.4,52.1,42.5,51.0,45.6,41.0,95,79,56,30.03,29.86,0,0,0,0.00
2013-9-24,71.9,54.6,41.3,53.0,45.4,39.0,94,73,44,30.02,29.85,0,0,0,0.00
2013-9-25,74.0,59.0,45.5,57.6,51.5,44.0,96,77,52,29.94,29.86,0,0,0,0.00
2013-9-26,68.0,58.4,52.9,56.0,53.0,48.8,95,83,59,30.10,29.94,0,0,0,0.00
2013-9-27,62.8,55.4,49.4,55.0,51.2,48.0,96,86,72,30.27,30.09,0,0,0,0.00
2013-9-28,72.7,60.4,50.7,58.3,53.3,48.6,94,79,54,30.32,30.24,0,0,0,0.00
2013-9-29,69.4,57.8,52.4,59.0,53.4,49.0,98,87,50,30.24,30.08,0,0,0,0.00
2013-9-30,72.3,58.6,48.1,57.0,52.7,47.0,96,82,53,30.08,29.96,0,0,0,0.00
2013-10-1,80.2,60.3,51.5,63.0,55.0,50.0,96,84,49,29.98,29.88,0,0,0,0.00
2013-10-2,82.2,69.0,56.9,66.4,61.6,56.0,96,78,56,29.99,29.88,0,0,0,0.00
2013-10-3,77.1,65.4,55.7,60.0,55.9,49.0,89,73,49,30.10,29.99,0,0,0,0.00
2013-10-4,80.1,65.5,59.4,69.0,61.2,57.0,96,86,69,30.06,29.97,0,0,0,0.00
2013-10-5,72.8,64.1,58.8,66.0,61.4,58.0,98,91,77,30.09,30.02,0,0,0,0.00
2013-10-6,62.8,60.6,59.5,62.0,60.3,59.0,100,99,97,30.14,30.06,0,0,0,0.00
2013-10-7,72.6,64.9,56.3,71.0,64.3,55.0,100,98,89,30.06,29.79,0,0,0,0.00
2013-10-8,66.3,56.1,49.0,55.0,47.6,43.0,96,75,46,30.33,29.93,0,0,0,0.00
2013-10-9,62.6,51.8,44.9,50.0,40.9,-99.9,92,78,59,30.42,30.32,0,0,0,0.00
2013-10-10,57.1,52.4,47.7,53.0,49.2,45.0,98,89,84,30.31,30.12,0,0,0,0.00
2013-10-11,67.7,59.7,52.2,61.0,55.8,50.0,95,87,77,30.11,30.04,0,0,0,0.00
2013-10-12,71.0,59.8,52.9,59.0,48.0,-99.9,91,78,62,30.32,30.09,0,0,0,0.00
2013-10-13,63.0,54.5,49.1,53.0,49.9,47.9,94,85,69,30.39,30.29,0,0,0,0.00
2013-10-14,64.0,53.4,44.7,52.0,48.3,43.0,95,83,64,30.37,30.25,0,0,0,0.00
2013-10-15,69.8,56.3,50.1,57.0,49.5,39.0,95,79,45,30.26,30.12,0,0,0,0.00
2013-10-16,63.9,57.0,50.6,56.3,52.1,45.0,96,84,70,30.12,29.91,0,0,0,0.00
2013-10-17,73.0,62.3,57.3,64.0,60.1,56.0,98,93,72,29.91,29.68,0,0,0,0.00
2013-10-18,69.4,60.8,49.9,61.0,52.0,43.0,98,75,50,29.94,29.62,0,0,0,0.00
2013-10-19,62.5,54.5,46.1,53.1,47.0,41.0,92,77,53,29.97,29.73,0,0,0,0.00
2013-10-20,64.5,52.0,45.4,54.0,42.8,37.7,95,73,42,30.04,29.71,0,0,0,0.00
2013-10-21,66.8,53.2,43.2,49.0,42.9,38.0,88,70,40,30.12,29.98,0,0,0,0.00
2013-10-22,68.3,52.6,46.3,55.0,47.9,40.3,96,85,56,29.98,29.71,0,0,0,0.00
2013-10-23,49.6,43.9,39.8,40.3,36.2,33.0,85,75,56,29.79,29.60,0,0,0,0.00
2013-10-24,55.1,41.6,34.7,38.4,33.5,30.0,93,75,45,29.94,29.70,0,0,0,0.00
2013-10-25,51.6,41.2,34.1,38.0,31.7,29.0,86,70,48,30.19,29.94,1,0,8,0.00
2013-10-26,54.4,43.1,33.5,40.0,25.8,-99.9,94,71,43,30.18,29.88,3,0,12,0.00
2013-10-27,61.1,48.7,38.8,41.2,35.0,31.0,85,61,40,30.08,29.82,5,0,6,0.00
2013-10-28,63.0,48.4,36.1,41.0,35.3,32.0,86,62,40,30.31,30.08,10,0,10,0.00
2013-10-29,50.6,42.9,37.7,32.1,29.6,26.7,72,60,47,30.42,30.32,4,0,8,0.02
2013-10-30,55.7,48.2,40.8,48.0,39.2,26.0,89,72,53,30.34,30.18,4,0,4,0.00
2013-10-31,61.6,56.3,47.8,59.0,54.9,46.0,97,95,90,30.22,29.81,10,1,12,0.06
2013-11-1,65.3,60.5,54.7,62.0,58.3,53.0,98,92,78,29.81,29.51,10,1,17,0.14
2013-11-2,64.8,55.1,49.6,54.0,45.9,43.0,95,72,50,29.75,29.59,7,1,9,0.01
2013-11-3,49.2,42.4,32.6,44.0,33.5,17.0,91,72,52,30.43,29.74,10,3,15,0.00
2013-11-4,41.6,35.9,30.6,21.0,18.6,16.0,58,50,39,30.68,30.43,11,2,16,0.00
2013-11-5,49.6,42.1,32.1,40.2,34.2,22.0,84,74,58,30.68,30.51,8,1,11,0.00
2013-11-6,58.7,51.4,44.0,52.0,46.8,40.0,97,85,64,30.50,30.06,7,0,11,0.00
2013-11-7,60.3,52.2,39.7,59.0,50.4,33.9,99,93,80,30.05,29.70,8,1,14,0.22
2013-11-8,46.4,39.2,34.1,34.0,31.1,28.0,88,73,52,30.16,29.86,8,2,19,0.00
2013-11-9,44.6,40.6,31.3,35.4,30.7,27.0,86,68,54,30.26,30.00,7,0,7,0.00
2013-11-10,58.5,46.4,42.9,40.8,37.0,32.0,87,70,44,30.00,29.75,15,2,22,0.01
2013-11-11,51.4,44.7,36.8,35.1,31.6,28.0,74,60,43,30.15,29.93,15,1,18,0.00
2013-11-12,48.3,34.0,27.3,38.6,25.9,18.8,94,73,57,30.22,29.90,16,4,17,0.05
2013-11-13,34.7,29.1,23.6,20.5,17.3,14.0,74,62,43,30.32,30.22,12,3,17,0.00
2013-11-14,49.8,38.9,27.8,23.6,20.5,16.8,76,50,28,30.23,30.10,12,1,14,0.00
2013-11-15,56.4,45.5,38.7,34.9,26.2,16.9,70,48,27,30.23,30.14,7,0,9,0.00
2013-11-16,58.7,49.0,44.0,45.5,37.9,25.9,97,67,40,30.31,30.20,10,1,11,0.00
2013-11-17,57.6,52.6,45.7,57.3,52.1,44.6,100,98,94,30.27,29.81,9,1,11,0.05
2013-11-18,62.1,56.4,47.9,59.4,45.0,27.6,100,69,44,29.82,29.57,13,2,19,0.34
2013-11-19,47.9,39.6,30.7,31.2,26.0,20.7,67,58,46,30.32,29.70,20,5,27,0.00
2013-11-20,40.6,33.1,26.6,21.0,16.1,11.0,69,51,32,30.62,30.31,18,3,18,0.00
2013-11-21,46.9,38.2,28.8,39.8,26.4,14.9,86,63,40,30.63,30.39,9,1,9,0.00
2013-11-22,50.7,47.2,43.7,50.1,45.4,39.5,98,93,85,30.39,29.85,7,0,10,0.11
2013-11-23,50.1,39.6,28.2,47.6,28.7,12.0,95,67,41,29.97,29.84,17,5,24,0.01
2013-11-24,28.0,23.2,20.7,15.7,6.9,0.0,64,50,33,30.29,29.88,25,7,27,0.00
2013-11-25,32.0,24.7,15.5,19.1,13.4,9.0,77,63,46,30.44,30.30,9,1,10,0.00
2013-11-26,39.2,34.3,30.2,38.7,24.1,16.0,98,68,48,30.33,29.89,11,1,12,0.32
2013-11-27,60.5,47.2,34.9,60.2,46.0,30.0,100,96,78,29.90,29.27,30,6,30,2.72
2013-11-28,34.8,29.3,24.7,30.9,17.6,12.0,89,62,49,30.46,29.60,18,5,23,0.00
2013-11-29,34.9,28.8,23.8,22.0,17.7,14.0,70,63,55,30.72,30.45,8,1,11,0.00
2013-11-30,33.6,26.1,18.5,28.6,16.4,10.0,82,67,43,30.76,30.40,8,1,10,0.00
2013-12-1,46.3,39.1,33.7,42.3,36.3,28.7,97,90,81,30.40,30.00,5,0,6,0.09
2013-12-2,43.1,37.2,34.0,39.9,35.2,33.0,98,93,76,30.00,29.89,5,0,7,0.00
2013-12-3,48.8,39.2,32.6,39.2,34.8,31.0,97,85,63,29.98,29.86,8,0,7,0.01
2013-12-4,49.4,40.3,31.8,38.5,34.0,29.0,90,79,64,30.16,29.98,8,0,7,0.00
2013-12-5,53.1,48.6,42.1,52.8,47.6,37.0,99,96,82,30.17,29.93,8,1,8,0.07
2013-12-6,53.2,43.7,35.1,52.9,42.7,33.8,100,96,87,30.14,29.86,14,2,15,0.53
2013-12-7,37.0,33.2,28.5,34.2,28.0,18.9,97,82,64,30.49,30.05,12,2,15,0.07
2013-12-8,29.9,27.6,23.2,24.7,20.2,17.9,92,74,65,30.59,30.42,6,1,9,0.00
2013-12-9,34.2,30.7,25.9,33.9,30.0,24.4,99,97,92,30.42,29.92,14,2,16,0.05
2013-12-10,33.2,29.8,22.1,32.8,29.4,21.0,99,98,96,30.06,29.80,4,0,5,0.00
2013-12-11,32.0,23.8,17.3,27.9,20.9,15.9,96,89,80,30.27,30.05,8,0,10,0.06
2013-12-12,24.4,20.1,16.4,19.5,13.2,9.0,88,74,57,30.31,30.11,10,1,12,0.00
2013-12-13,31.0,23.6,15.0,19.3,14.9,8.7,83,69,57,30.35,30.06,14,1,19,0.00
2013-12-14,22.4,17.2,14.3,16.7,13.9,12.0,94,87,68,30.53,29.93,24,5,24,0.00
2013-12-15,31.4,27.9,18.2,31.0,27.1,16.7,98,97,94,29.93,29.48,26,4,26,0.01
2013-12-16,26.5,22.5,17.4,25.5,19.8,14.3,96,89,83,30.21,29.77,12,2,14,0.00
2013-12-17,17.8,16.3,15.0,15.8,14.1,11.9,94,91,85,30.23,29.92,17,3,19,0.00
2013-12-18,29.8,25.1,17.2,28.0,23.5,15.5,95,94,91,30.14,29.90,14,2,14,0.00
2013-12-19,43.2,32.9,24.1,37.8,28.2,22.0,100,84,61,30.15,29.99,10,0,10,0.16
2013-12-20,50.3,42.1,37.7,37.6,33.9,29.0,88,73,59,30.11,29.95,5,0,7,0.16
2013-12-21,55.3,47.4,41.5,48.7,44.1,36.0,98,88,76,30.00,29.89,7,0,8,0.00
2013-12-22,60.5,56.1,49.4,60.2,55.0,48.6,99,96,87,29.95,29.79,15,1,18,0.00
2013-12-23,56.6,49.9,36.4,54.9,48.9,31.9,99,97,84,30.09,29.85,18,2,19,0.82
2013-12-24,36.3,31.6,24.2,31.9,22.7,16.0,84,70,51,30.26,30.04,18,3,18,0.00
2013-12-25,25.6,21.4,15.9,16.6,9.6,6.0,74,60,47,30.52,30.26,13,2,17,0.00
2013-12-26,32.1,27.6,23.7,27.1,22.9,16.0,88,82,72,30.44,30.12,7,1,11,0.00
2013-12-27,36.1,29.8,24.4,24.1,22.5,19.5,90,75,53,30.32,30.23,9,1,10,0.00
2013-12-28,47.4,38.3,29.2,29.8,27.4,23.8,87,66,47,30.26,30.04,7,0,0,0.00
2013-12-29,42.3,40.2,37.0,39.3,34.3,29.0,98,80,60,30.04,29.39,13,2,20,1.37
2013-12-30,39.4,30.8,16.6,37.1,25.7,8.2,98,82,64,30.17,29.60,9,3,16,0.00
2013-12-31,27.1,21.0,14.0,21.8,13.5,8.0,85,72,60,30.24,30.04,12,1,12,0.00
2014-1-1,29.0,26.1,20.7,19.9,15.3,10.0,80,63,53,30.40,30.23,8,1,12,0.00
2014-1-2,25.1,17.9,8.7,20.4,15.7,6.0,100,91,81,30.29,29.69,23,6,24,0.00